TITAN 34D TRANSTAGE DEB, 23130

Orbit data source: Space-Track

TITAN 34D TRANSTAGE DEB, 23130 is space debris in HEO originally from a launch on Fri, 02 Sep 1988 UTC launched from the Air Force Eastern Test Range (AFETR). Debris objects in space refer to the collection of defunct objects orbiting the Earth. Examples of debris include non-operational satellites, rocket bodies, and fragments generated from explosions, collisions, or faulty payload assembly.

Loading next visibility...
Identifier
23130, 1988-077M
Orbit
HEO
Country
Flag of USUS
Related business
Manufacturer
Unknown
Mission
Spacecraft
Bus & Motor
Unknown
Mass
Unknown
Launch date (UTC)
1988-09-02 (38 years ago)
Launch vehicle
Unknown
Launch site
Air Force Eastern Test Range (AFETR)
Object type
Payload
Rocket body
Debris
Shape & HBR
Unknown shape, 1.1 m
Radar Cross Section
Large (>1 m²)

Expand to show TLE details & history
Last TLE update: 4 days ago

TLE from 4 days ago
0 TITAN 34D TRANSTAGE DEB
1 23130U 88077M   26170.00785503 -.00000194  00000-0  18840-1 0  9990
2 23130  27.3116  72.2238 7271011  73.9776 349.3655  2.00686467 51070
Epoch: 2026-06-19T00:11Z
TLE epoch observation values (Epoch: 2026-06-19T00:11:18.674Z)
Latitude
-0.00005°
Longitude
162.18463°
Altitude
4,029.819 km
Speed
7.847 km/s
True Right ascension
04h 49m 01s
True Declination
0° 00' 00"
Sunlit
Object was in daylight at epoch
Visualization orbit readout
Latitude
Unknown
Longitude
Unknown
Altitude
Unknown
Speed
Unknown
Apparent Right ascension
Unknown
Apparent Declination
Unknown
Sunlit
N/A
Visualization observer readout
Local Sidereal Time
00:27:49
Azimuth
Unknown
Elevation
Unknown
Doppler factor
Unknown
Orbital elements
Apogee altitude
39,481.631 km
Perigee altitude
868.156 km
Semi-major axis
26,553.031 km
Eccentricity
0.7271
Inclination
27.3116°
RAAN
72.2238°
Arg. of periapsis
73.9776°
True anomaly
285.17432°
Mean anomaly
349.3655°
Eccentric anomaly
326.17555°
Mean motion
0.50162 °/min
Orbital period
717.68 mins
BSTAR
0.01884
Loading maneuver chart data...
Computing Atmospheric mass density...

Documentation

Showing up to 5 results
|